Regional Weather Roundup
Issued by NWS Sioux Falls, SD

Home | Current Version | Previous Version | Text Only | Print | Product List | Glossary On
Versions: 1 2 3 4 5 6 7 8 9 10 11 12 13 14 15 16 17 18 19 20 21 22 23 24 25 26 27 28 29 30 31 32 33 34 35 36 37 38 39 40 41 42 43 44 45 46 47 48 49 50
000
ASUS43 KFSD 032110
RWRFSD

WEATHER ROUNDUP FOR SE SOUTH DAKOTA/SW MINNESOTA/NW IOWA
NATIONAL WEATHER SERVICE SIOUX FALLS SD
400 PM CDT FRI JUL 03 2015

NOTE: "FAIR" INDICATES FEW OR NO CLOUDS BELOW 12,000 FEET WITH NO
SIGNIFICANT WEATHER AND OR OBSTRUCTIONS TO VISIBILITY.


SDZ038>040-050-052>070-032200-
SOUTHEAST SOUTH DAKOTA

CITY           SKY/WX    TMP DP  RH WIND       PRES   REMARKS
BROOKINGS      PTSUNNY   79  64  61 N3        29.98F
CHAMBERLAIN    PTSUNNY   80  65  59 S5        29.97F
HURON          MOSUNNY   80  66  62 SW5       29.94F
MADISON        FAIR      77  66  69 W6        29.98F
MITCHELL       MOSUNNY   80  66  62 S5        29.97F
SIOUX FALLS    PTSUNNY   77  63  61 W5        29.98F
WINNER         FAIR      85  53  33 CALM      29.98F
YANKTON        SUNNY     75  63  64 W3        29.96F
$$

MNZ071-072-080-081-089-090-097-098-032200-
SOUTHWEST MINNESOTA

CITY           SKY/WX    TMP DP  RH WIND       PRES   REMARKS
FAIRMONT       SUNNY     77  46  33 SW5       29.96F
JACKSON        SUNNY     79  59  50 SW8       29.98F
LUVERNE        SUNNY     79  59  50 CALM      29.99S
MARSHALL       PTSUNNY   81  63  54 N5        29.93F
MONTEVIDEO     MOSUNNY   84  66  54 NW5       29.94S
PIPESTONE      MOSUNNY   77  63  61 W6        29.98F
REDWOOD FALLS  SUNNY     80  57  45 VRB5      29.94F
TRACY          MOSUNNY   80  62  54 W5        29.96F
WINDOM         SUNNY     79  54  41 SW6       29.97F
WORTHINGTON    SUNNY     75  55  50 W6        29.98F
$$

IAZ001>003-012>014-020>022-031-032-NEZ013-014-SDZ071-032200-
NORTHWEST IOWA

CITY           SKY/WX    TMP DP  RH WIND       PRES   REMARKS
CHEROKEE       SUNNY     75  54  46 CALM      29.99F
DENISON        SUNNY     75  52  43 CALM      29.97F
ESTHERVILLE    SUNNY     76  58  53 SW7       29.97F
LE MARS        SUNNY     77  59  53 CALM      29.99F
ORANGE CITY    SUNNY     73  57  56 W6        29.99F
SHELDON        MOSUNNY   75  59  57 W7        29.98F
SIOUX CITY     SUNNY     78  59  51 NW5       29.98F
SPENCER        MOSUNNY   80  55  42 W9        29.98F
STORM LAKE     SUNNY     75  52  43 CALM      30.00F
$$

ABBREVIATIONS USED IN REMARKS
   TC - TEMPERATURE IN CELSIUS
  WCI - WIND CHILL INDEX
   HX - HEAT INDEX
  VSB - VISIBILITY



USA.gov is the U.S. government's official web portal to all federal, state and local government web resources and services.